Weather History for Craig, CO

Change the Weather History Date:

Saturday, March 29, 2014

  Actual Average Record
Temperature  
Mean Temperature 39 °F 38 °F  
Max Temperature 57 °F 52 °F 64 °F (1999)
Min Temperature 20 °F 24 °F 16 °F (1999)
Degree Days  
Heating Degree Days 26 27  
Month to date heating degree days 836 959  
Since 1 July heating degree days 7024 7285  
Cooling Degree Days 0 0  
Month to date cooling degree days 0 0  
Year to date cooling degree days 0 0  
Moisture  
Dew Point 20 °F    
Average Humidity 58    
Maximum Humidity 91    
Minimum Humidity 24    
Precipitation  
Precipitation 0.00 in 0.06 in 0.25 in (2005)
Month to date precipitation 0.69 1.19  
Year to date precipitation 2.00 2.89  
Sea Level Pressure  
Sea Level Pressure 30.13 in    
Wind  
Wind Speed 8 mph (SW)    
Max Wind Speed 29 mph    
Max Gust Speed 36 mph    
Visibility 10 miles    
Events      
T = Trace of Precipitation, MM = Missing Value Source: NWS Daily Summary

Daily Weather History Graph

Daily Weather History Graph

Search for Another Location

Airport:

Trip Planner

Search our weather history database for the weather conditions in past years. The results will help you decide how hot, cold, wet, or windy it might be!

Date:

Astronomy

Mar. 29, 2014 Rise Set
Actual Time 6:58 AM MDT 7:31 PM MDT
Civil Twilight 6:31 AM MDT 7:59 PM MDT
Nautical Twilight 5:58 AM MDT 8:31 PM MDT
Astronomical Twilight 5:25 AM MDT 9:04 PM MDT
Moon 6:09 AM MDT (3/29) 6:40 PM MDT (3/29)
Length of Visible Light 13h 27m
Length of Day
12h 33m
Waning Crescent, 1% of the Moon is Illuminated
Mar 29
Waning Crescent
Mar 30
New
Apr 7
First Quarter
Apr 15
Full
Apr 22
Last Quarter

Hourly Weather History & Observations

Time (MDT) Temp. Windchill Dew Point Humidity Pressure Visibility Wind Dir Wind Speed Gust Speed Precip Events Conditions
12:53 AM 24.1 °F - 19.0 °F 81% 30.31 in 10.0 mi Calm Calm - N/A   Clear
1:53 AM 21.9 °F - 18.0 °F 85% 30.32 in 10.0 mi Calm Calm - N/A   Clear
2:53 AM 19.9 °F - 18.0 °F 92% 30.30 in 10.0 mi Calm Calm - N/A   Clear
3:53 AM 21.9 °F - 18.0 °F 85% 30.27 in 10.0 mi Calm Calm - N/A   Clear
4:53 AM 26.1 °F - 19.0 °F 75% 30.25 in 10.0 mi Calm Calm - N/A   Clear
5:53 AM 21.9 °F - 17.1 °F 82% 30.25 in 10.0 mi Calm Calm - N/A   Clear
6:53 AM 21.0 °F 16.2 °F 17.1 °F 85% 30.27 in 10.0 mi WNW 3.5 mph - N/A   Clear
7:53 AM 24.1 °F 18.2 °F 21.0 °F 88% 30.31 in 10.0 mi SW 4.6 mph - N/A   Clear
8:53 AM 33.1 °F 24.9 °F 19.9 °F 59% 30.27 in 10.0 mi ENE 10.4 mph - N/A   Clear
9:53 AM 39.0 °F 32.3 °F 21.9 °F 50% 30.23 in 10.0 mi ENE 10.4 mph - N/A   Clear
10:53 AM 45.0 °F 43.5 °F 21.9 °F 40% 30.19 in 10.0 mi North 3.5 mph - N/A   Clear
11:53 AM 53.1 °F - 21.0 °F 29% 30.14 in 10.0 mi WSW 18.4 mph 29.9 mph N/A   Clear
12:53 PM 55.0 °F - 23.0 °F 29% 30.09 in 10.0 mi SSW 19.6 mph 28.8 mph N/A   Clear
1:53 PM 55.9 °F - 19.9 °F 25% 30.07 in 10.0 mi WSW 27.6 mph 33.4 mph N/A   Clear
2:53 PM 55.9 °F - 21.0 °F 26% 30.06 in 10.0 mi SSW 19.6 mph 29.9 mph N/A   Partly Cloudy
3:53 PM 55.0 °F - 19.0 °F 24% 30.03 in 10.0 mi SW 19.6 mph - N/A   Partly Cloudy
4:53 PM 54.0 °F - 19.9 °F 26% 30.01 in 10.0 mi WSW 17.3 mph - N/A   Clear
5:53 PM 52.0 °F - 19.9 °F 28% 30.03 in 10.0 mi SW 9.2 mph - N/A   Clear
6:53 PM 50.0 °F - 19.0 °F 29% 30.02 in 10.0 mi SSW 8.1 mph - N/A   Clear
7:53 PM 48.0 °F - 19.9 °F 33% 30.02 in 10.0 mi SW 12.7 mph - N/A   Clear
8:53 PM 43.0 °F 39.5 °F 23.0 °F 45% 30.00 in 10.0 mi ENE 5.8 mph - N/A   Clear
9:53 PM 42.1 °F 40.2 °F 21.9 °F 45% 29.96 in 10.0 mi East 3.5 mph - N/A   Clear
10:53 PM 37.0 °F 31.6 °F 23.0 °F 57% 29.96 in 10.0 mi ENE 6.9 mph - N/A   Clear
11:53 PM 35.1 °F - 25.0 °F 67% 29.91 in 10.0 mi Calm Calm - N/A   Mostly Cloudy